Location: Brno
(49.2000°N, 16.6330°E)
Time: 13:11:40
(UTC+02:00)

Cosmos 332 Rocket - Visible Passes

Search period start: 25 October 2014 00:00
Search period end: 03 November 2014 23:00
Orbit: 684 x 707 km, 74.0° (Epoch: 25 October)

Date Brightness Start Highest point End Pass type
(mag) Time Alt. Az. Time Alt. Az. Time Alt. Az.
25 Oct 5.0 18:27:45 10° NNW 18:32:30 49° WSW 18:37:13 10° S visible
26 Oct 6.9 18:10:34 10° NW 18:13:49 18° W 18:17:04 10° SW visible
27 Oct 5.3 17:10:52 10° NW 17:15:33 44° WSW 17:20:11 10° S visible
28 Oct 6.4 05:58:57 10° SSE 06:03:00 27° E 06:07:05 10° NE visible
28 Oct 7.2 17:53:53 10° WNW 17:56:48 16° W 17:59:43 10° SW visible
29 Oct 7.7 05:04:06 10° E 05:04:54 10° E 05:05:42 10° E visible
30 Oct 6.1 05:41:47 10° SSE 05:46:00 30° ESE 05:50:15 10° NE visible
30 Oct 7.2 17:37:16 10° WNW 17:39:46 14° W 17:42:16 10° SW visible
31 Oct 7.3 04:46:04 10° ESE 04:47:51 12° E 04:49:39 10° ENE visible
01 Nov 5.7 05:24:38 10° SSE 05:29:00 34° ESE 05:33:24 10° NE visible
01 Nov 7.3 17:20:45 10° WNW 17:22:44 12° W 17:24:42 10° WSW visible
02 Nov 7.1 04:28:26 10° ESE 04:30:48 14° E 04:33:11 10° ENE visible
02 Nov 3.9 06:05:40 10° SSW 06:10:33 86° WNW 06:15:30 10° NNE visible
03 Nov 5.4 05:07:30 10° S 05:11:59 38° ESE 05:16:32 10° NE visible
03 Nov 7.5 17:04:31 10° WNW 17:05:40 11° W 17:06:50 10° WSW visible
